�N����,����,�~����,�C��,���x,�C��,����,���ϕ���,�ő�u�ԕ���,�ő厞����,���˗�,�I�_���x,�n�����x,�ő啗���N��,DTYPE
"23/09/04","00:10",0.0,25.7,79.5,1004.5,316.5,1.5,3.3,326.8,0.00,21.9,26.0,"00:06:24",1
"23/09/04","00:20",0.0,25.8,79.5,1004.3,316.6,1.5,3.2,346.5,0.00,22.0,26.0,"00:10:16",1
"23/09/04","00:30",0.0,25.9,79.6,1004.3,311.8,1.2,2.5,312.1,0.00,22.1,25.9,"00:21:04",1
"23/09/04","00:40",0.0,25.9,79.9,1004.5,324.4,1.3,2.8,326.3,0.00,22.2,26.0,"00:37:36",1
"23/09/04","00:50",0.0,25.8,80.3,1004.8,294.6,1.1,2.0,309.8,0.00,22.2,26.1,"00:48:56",1
"23/09/04","01:00",0.0,25.8,80.8,1005.0,328.3,1.1,2.2,327.6,0.00,22.3,25.9,"00:53:44",1
"23/09/04","01:10",0.0,25.8,81.4,1004.8,312.5,1.3,2.6,319.4,0.00,22.4,26.1,"01:07:52",1
"23/09/04","01:20",0.0,26.0,81.9,1004.8,319.2,1.5,2.7,349.5,0.00,22.7,25.8,"01:17:52",1
"23/09/04","01:30",0.0,26.0,82.1,1004.8,334.9,1.5,2.7,337.7,0.00,22.7,25.9,"01:23:44",1
"23/09/04","01:40",0.0,26.0,82.3,1004.8,308.8,1.2,3.4,339.7,0.00,22.8,26.1,"01:38:32",1
"23/09/04","01:50",0.0,26.0,82.5,1004.8,323.0,1.3,3.2,351.6,0.00,22.8,26.0,"01:44:48",1
"23/09/04","02:00",0.0,25.8,82.7,1005.0,317.8,0.5,1.4,317.8,0.00,22.7,25.8,"01:50:16",1
"23/09/04","02:10",0.0,25.6,83.3,1004.8,285.7,0.3,1.1,300.3,0.00,22.6,25.8,"02:00:02",1
"23/09/04","02:20",0.0,25.6,84.0,1004.8,282.2,1.0,1.7,260.0,0.00,22.7,26.0,"02:14:16",1
"23/09/04","02:30",0.0,25.6,84.3,1004.3,267.3,0.8,1.8,325.7,0.00,22.8,25.7,"02:20:32",1
"23/09/04","02:40",0.0,25.7,84.4,1004.3,271.9,0.8,1.6,295.9,0.00,22.9,25.8,"02:34:24",1
"23/09/04","02:50",0.0,25.6,84.5,1004.1,263.2,1.0,1.6,243.2,0.00,22.8,25.8,"02:42:16",1
"23/09/04","03:00",0.0,25.6,84.7,1003.8,290.9,1.1,1.9,334.5,0.00,22.9,25.7,"02:54:16",1
"23/09/04","03:10",0.0,25.6,84.9,1003.6,320.7,1.3,2.9,296.3,0.00,22.9,25.7,"03:06:00",1
"23/09/04","03:20",0.0,25.6,84.8,1003.6,313.4,1.1,2.1,306.4,0.00,22.9,25.7,"03:10:08",1
"23/09/04","03:30",0.0,25.7,84.6,1003.4,316.9,1.1,3.3,343.2,0.00,22.9,25.6,"03:25:52",1
"23/09/04","03:40",0.0,25.6,84.3,1003.6,258.4,0.7,1.4,308.6,0.00,22.8,25.7,"03:30:16",1
"23/09/04","03:50",0.0,25.7,84.4,1003.8,250.4,1.1,2.6,231.4,0.00,22.9,25.7,"03:44:40",1
"23/09/04","04:00",0.0,25.6,84.6,1003.6,316.8,1.0,1.6,334.5,0.00,22.9,25.7,"03:58:00",1
"23/09/04","04:10",0.0,25.4,84.8,1003.6,308.9,0.8,1.8,327.3,0.00,22.7,25.6,"04:03:36",1
"23/09/04","04:20",0.0,25.2,85.2,1003.8,299.8,0.8,1.2,328.0,0.00,22.6,25.7,"04:11:20",1
"23/09/04","04:30",0.0,25.1,85.7,1003.6,309.1,1.0,1.8,260.8,0.00,22.6,25.5,"04:21:44",1
"23/09/04","04:40",0.0,24.8,86.1,1003.8,328.9,0.6,1.2,340.3,0.00,22.4,25.5,"04:30:40",1
"23/09/04","04:50",0.0,24.7,86.7,1003.4,323.8,0.8,1.3,337.9,0.00,22.4,25.5,"04:43:52",1
"23/09/04","05:00",0.0,24.5,87.2,1003.1,341.8,0.5,1.2,1.7,0.00,22.3,25.5,"04:54:40",1
"23/09/04","05:10",0.0,24.2,87.6,1003.1,300.9,0.6,1.2,331.4,0.00,22.1,25.6,"05:03:52",1
"23/09/04","05:20",0.0,24.0,88.3,1003.6,329.1,0.8,1.9,319.3,0.00,22.0,25.5,"05:13:52",1
"23/09/04","05:30",0.0,24.0,88.8,1003.1,347.7,0.6,1.4,11.7,0.00,22.1,25.4,"05:23:36",1
"23/09/04","05:40",0.0,23.9,89.3,1003.1,318.5,0.8,1.7,318.0,0.00,22.1,25.5,"05:38:08",1
"23/09/04","05:50",0.0,23.9,89.8,1003.1,331.6,1.1,2.1,340.6,0.00,22.2,25.4,"05:41:52",1
"23/09/04","06:00",0.0,24.1,90.2,1003.4,338.1,1.0,1.7,350.6,0.00,22.4,25.4,"05:56:16",1
"23/09/04","06:10",0.0,24.2,90.6,1003.6,330.0,1.0,1.8,342.1,0.00,22.6,25.5,"06:02:24",1
"23/09/04","06:20",0.0,24.4,90.7,1003.4,318.9,1.1,1.7,328.0,0.00,22.8,25.4,"06:13:28",1
"23/09/04","06:30",0.0,24.8,90.8,1003.4,316.1,0.8,1.4,340.0,0.00,23.2,25.3,"06:24:24",1
"23/09/04","06:40",0.0,25.0,90.7,1003.8,325.9,0.8,1.3,286.5,0.01,23.4,25.4,"06:37:04",1
"23/09/04","06:50",0.0,25.3,90.4,1003.1,317.6,1.1,2.1,337.4,0.02,23.7,25.5,"06:49:04",1
"23/09/04","07:00",0.0,25.7,90.0,1003.4,265.5,0.8,1.8,243.2,0.04,24.0,25.4,"06:57:36",1
"23/09/04","07:10",0.0,26.3,89.0,1003.1,257.7,0.2,0.8,306.1,0.06,24.4,25.4,"07:08:24",1
"23/09/04","07:20",0.0,26.8,87.7,1003.4,309.0,0.7,1.8,347.2,0.08,24.6,25.3,"07:15:36",1
"23/09/04","07:30",0.0,27.2,85.5,1002.9,215.5,0.6,1.6,234.8,0.08,24.6,25.4,"07:21:44",1
"23/09/04","07:40",0.0,27.7,82.1,1002.9,229.3,1.1,2.2,234.6,0.05,24.4,25.5,"07:34:16",1
"23/09/04","07:50",0.0,28.1,80.4,1002.9,337.2,0.5,1.3,226.2,0.07,24.4,25.4,"07:40:08",1
"23/09/04","08:00",0.0,28.4,79.4,1002.9,339.4,0.7,1.7,341.1,0.07,24.5,25.6,"07:52:56",1
"23/09/04","08:10",0.0,28.3,78.3,1002.4,314.4,0.6,1.7,348.8,0.07,24.2,25.4,"08:05:28",1
"23/09/04","08:20",0.0,28.6,77.2,1002.4,291.6,0.6,1.3,203.8,0.09,24.3,25.2,"08:13:20",1
"23/09/04","08:30",0.0,29.0,76.1,1002.6,269.9,0.7,1.8,232.4,0.14,24.4,25.5,"08:29:28",1
"23/09/04","08:40",0.0,29.4,75.4,1002.9,279.4,0.7,2.0,245.7,0.17,24.6,25.2,"08:38:32",1
"23/09/04","08:50",0.0,29.9,73.9,1002.9,290.6,0.7,1.8,234.1,0.18,24.8,25.6,"08:41:04",1
"23/09/04","09:00",0.0,30.5,71.9,1003.4,332.2,1.1,2.9,353.1,0.27,24.9,25.6,"08:55:36",1
"23/09/04","09:10",0.0,31.6,69.4,1003.8,332.9,1.0,3.1,358.0,0.34,25.4,25.8,"09:00:16",1
"23/09/04","09:20",0.0,31.7,64.7,1004.5,20.9,1.5,4.1,26.1,0.30,24.3,25.7,"09:16:40",1
"23/09/04","09:30",0.0,31.5,63.2,1004.8,1.8,1.8,3.9,60.1,0.26,23.7,25.8,"09:28:00",1
"23/09/04","09:40",0.0,32.0,61.8,1004.3,14.6,2.0,5.4,347.0,0.33,23.8,25.7,"09:36:08",1
"23/09/04","09:50",0.0,32.0,61.9,1004.5,6.2,1.7,3.3,49.9,0.25,23.8,25.8,"09:40:08",1
"23/09/04","10:00",0.0,31.6,61.9,1004.1,7.1,2.1,4.1,27.4,0.19,23.4,25.8,"09:52:40",1
"23/09/04","10:10",0.0,32.3,61.5,1003.8,5.3,1.7,3.4,9.5,0.36,24.0,26.0,"10:02:56",1
"23/09/04","10:20",0.0,32.3,59.8,1004.3,6.1,2.0,4.8,349.0,0.31,23.5,25.9,"10:19:52",1
"23/09/04","10:30",0.0,32.6,60.4,1004.3,0.2,2.2,4.8,321.2,0.42,24.0,25.9,"10:22:08",1
"23/09/04","10:40",0.0,33.1,57.8,1004.3,7.0,2.1,5.4,36.2,0.41,23.7,25.9,"10:38:40",1
"23/09/04","10:50",0.0,33.1,59.0,1004.3,350.1,2.0,3.9,347.8,0.36,24.1,25.8,"10:44:56",1
"23/09/04","11:00",0.0,33.0,57.6,1004.1,7.0,2.1,4.7,311.5,0.32,23.6,26.1,"10:54:56",1
"23/09/04","11:10",0.0,34.1,55.5,1004.3,6.9,2.1,4.1,11.6,0.51,24.0,26.1,"11:03:36",1
"23/09/04","11:20",0.0,33.8,56.4,1003.8,0.5,2.1,3.4,20.5,0.38,24.0,26.0,"11:14:24",1
"23/09/04","11:30",0.0,33.5,58.0,1003.8,337.7,1.6,3.5,352.8,0.31,24.1,26.2,"11:27:52",1
"23/09/04","11:40",0.0,33.3,58.4,1003.4,3.1,1.8,3.9,343.8,0.33,24.1,26.2,"11:36:40",1
"23/09/04","11:50",0.0,33.9,56.0,1003.1,14.7,2.3,5.4,25.0,0.53,23.9,26.3,"11:46:32",1
"23/09/04","12:00",0.0,33.9,56.4,1003.8,348.2,2.5,4.8,346.7,0.54,24.0,26.2,"11:57:12",1
"23/09/04","12:10",0.0,34.1,54.2,1003.6,1.1,1.7,3.3,335.8,0.37,23.6,26.4,"12:04:08",1
"23/09/04","12:20",0.0,33.8,55.6,1003.1,17.6,2.1,4.8,357.3,0.30,23.7,26.5,"12:19:44",1
"23/09/04","12:30",0.0,33.8,55.6,1003.1,17.6,2.6,5.2,39.3,0.37,23.7,26.6,"12:24:16",1
"23/09/04","12:40",0.0,33.4,58.7,1002.6,356.0,2.2,4.2,351.7,0.26,24.2,26.5,"12:31:52",1
"23/09/04","12:50",0.0,33.4,56.8,1002.6,4.3,1.8,4.4,334.6,0.29,23.7,26.6,"12:44:00",1
"23/09/04","13:00",0.0,33.3,54.8,1002.6,8.0,2.5,6.6,344.4,0.30,23.0,26.9,"12:51:44",1
"23/09/04","13:10",0.0,33.8,55.7,1002.4,359.1,1.7,4.2,353.7,0.34,23.7,26.7,"13:00:08",1
"23/09/04","13:20",0.0,33.8,55.4,1002.2,11.4,1.7,3.3,343.6,0.26,23.7,26.8,"13:11:44",1
"23/09/04","13:30",0.0,33.7,55.4,1002.2,14.8,2.1,5.4,25.5,0.27,23.6,26.7,"13:23:44",1
"23/09/04","13:40",0.0,33.9,55.4,1002.2,6.9,2.0,4.9,29.2,0.32,23.7,26.7,"13:32:32",1
"23/09/04","13:50",0.0,33.5,54.0,1002.4,0.6,1.8,3.7,5.0,0.20,23.0,26.6,"13:41:36",1
"23/09/04","14:00",0.0,33.2,56.2,1002.6,357.1,1.7,4.1,9.1,0.15,23.3,26.8,"13:52:32",1
"23/09/04","14:10",0.0,33.2,56.9,1002.4,346.8,1.8,4.3,14.0,0.19,23.5,26.6,"14:00:40",1
"23/09/04","14:20",0.0,33.3,55.8,1002.2,3.4,1.5,3.1,348.5,0.18,23.3,27.0,"14:15:44",1
"23/09/04","14:30",0.0,33.6,55.8,1002.6,8.8,1.1,2.7,7.2,0.15,23.6,27.0,"14:21:52",1
"23/09/04","14:40",0.0,33.3,56.3,1002.2,28.3,1.3,3.7,48.1,0.12,23.5,26.9,"14:36:08",1
"23/09/04","14:50",0.0,33.0,59.1,1001.7,349.1,1.2,2.2,349.2,0.10,24.0,27.1,"14:48:16",1
"23/09/04","15:00",0.0,32.8,60.9,1001.7,356.7,1.0,2.0,354.4,0.08,24.3,27.0,"14:56:56",1
"23/09/04","15:10",0.0,32.7,60.6,1001.5,356.5,1.0,2.2,351.7,0.10,24.1,26.8,"15:03:44",1
"23/09/04","15:20",0.0,32.8,60.9,1001.2,355.2,1.2,2.8,347.4,0.12,24.3,26.9,"15:18:08",1
"23/09/04","15:30",0.0,33.0,60.5,1001.2,357.8,1.1,3.2,349.2,0.13,24.4,27.0,"15:28:08",1
"23/09/04","15:40",0.0,33.2,59.5,1001.7,3.4,1.5,3.4,67.5,0.18,24.3,26.9,"15:32:40",1
"23/09/04","15:50",0.0,33.1,58.9,1001.7,8.5,1.7,3.6,41.5,0.15,24.0,26.8,"15:45:52",1
"23/09/04","16:00",0.0,32.9,60.1,1001.7,355.2,1.5,3.2,351.2,0.13,24.2,27.0,"15:52:48",1
"23/09/04","16:10",0.0,33.1,59.1,1001.7,1.0,1.7,3.2,326.2,0.17,24.1,26.9,"16:02:56",1
"23/09/04","16:20",0.0,33.0,59.2,1001.7,10.1,1.6,3.4,51.0,0.13,24.0,27.0,"16:14:08",1
"23/09/04","16:30",0.0,32.9,59.2,1001.7,1.8,1.7,3.6,349.4,0.10,23.9,27.1,"16:29:04",1
"23/09/04","16:40",0.0,32.2,61.3,1001.5,350.9,1.7,3.6,353.7,0.08,23.8,26.8,"16:30:40",1
"23/09/04","16:50",0.0,32.1,62.0,1001.9,352.8,1.6,3.1,357.0,0.07,23.9,27.1,"16:43:52",1
"23/09/04","17:00",0.0,31.8,62.8,1001.0,349.7,1.6,4.2,328.0,0.06,23.9,26.9,"16:52:56",1
"23/09/04","17:10",0.0,31.7,63.3,1000.8,353.8,1.7,3.1,342.6,0.05,23.9,26.9,"17:01:20",1
"23/09/04","17:20",0.0,31.5,65.0,1001.0,349.6,1.3,3.3,353.6,0.03,24.2,27.0,"17:13:12",1
"23/09/04","17:30",0.0,31.1,66.1,1000.8,351.2,1.6,4.4,356.7,0.02,24.1,26.9,"17:29:36",1
"23/09/04","17:40",0.0,30.7,67.2,1000.5,348.3,1.7,3.6,343.8,0.01,24.0,26.8,"17:39:12",1
"23/09/04","17:50",0.0,30.5,67.9,1000.5,357.4,1.6,3.4,335.8,0.00,23.9,26.9,"17:46:24",1
"23/09/04","18:00",0.0,30.3,69.1,1000.5,354.0,1.7,3.7,3.8,0.00,24.0,27.0,"17:52:56",1
"23/09/04","18:10",0.0,30.0,70.8,1000.3,353.0,1.7,3.5,351.7,0.00,24.2,26.8,"18:03:20",1
"23/09/04","18:20",0.0,29.8,72.0,1000.3,352.5,1.8,4.0,357.9,0.00,24.2,26.9,"18:13:52",1
"23/09/04","18:30",0.0,29.6,73.1,1000.3,354.2,2.0,4.2,355.0,0.00,24.3,26.8,"18:22:00",1
"23/09/04","18:40",0.0,29.4,73.9,1000.3,349.1,2.1,5.7,340.0,0.00,24.3,26.9,"18:38:24",1
"23/09/04","18:50",0.0,29.3,74.4,1000.3,354.6,1.8,3.5,355.2,0.00,24.3,26.7,"18:40:40",1
"23/09/04","19:00",0.0,29.2,74.6,1000.8,356.1,2.2,5.1,348.1,0.00,24.3,27.0,"18:52:16",1
"23/09/04","19:10",0.0,29.2,74.8,1001.0,352.6,2.2,4.2,338.5,0.00,24.3,26.8,"19:05:44",1
"23/09/04","19:20",0.0,29.2,74.7,1001.5,354.4,2.2,5.0,355.8,0.00,24.3,26.7,"19:10:24",1
"23/09/04","19:30",0.0,29.1,74.8,1001.5,0.3,1.6,3.3,354.3,0.00,24.2,26.8,"19:20:56",1
"23/09/04","19:40",0.0,29.1,74.9,1001.5,357.2,1.6,3.4,23.8,0.00,24.2,26.4,"19:30:16",1
"23/09/04","19:50",0.0,29.0,75.6,1001.9,344.1,1.1,3.1,325.8,0.00,24.3,26.8,"19:41:12",1
"23/09/04","20:00",0.0,28.8,75.8,1001.7,335.9,0.8,1.8,339.8,0.00,24.1,26.8,"19:51:44",1
"23/09/04","20:10",0.0,28.7,76.6,1001.9,324.8,1.0,1.8,327.8,0.00,24.2,26.6,"20:05:36",1
"23/09/04","20:20",0.0,28.5,77.5,1002.2,339.5,1.0,2.0,340.1,0.00,24.2,26.6,"20:19:28",1
"23/09/04","20:30",0.0,28.4,78.0,1001.9,340.0,0.5,1.7,342.4,0.00,24.2,26.6,"20:21:04",1
"23/09/04","20:40",0.0,28.3,78.7,1002.2,322.0,0.5,1.1,355.3,0.00,24.3,26.6,"20:37:28",1
"23/09/04","20:50",0.0,28.4,79.1,1002.4,16.9,0.7,2.2,358.5,0.00,24.5,26.6,"20:45:04",1
"23/09/04","21:00",0.0,28.5,78.8,1001.9,345.4,1.0,1.7,355.1,0.00,24.5,26.7,"20:52:16",1
"23/09/04","21:10",0.0,28.2,79.4,1002.2,340.1,0.8,1.4,339.9,0.00,24.3,26.5,"21:01:36",1
"23/09/04","21:20",0.0,28.1,79.9,1002.4,344.8,0.5,1.2,349.8,0.00,24.3,26.4,"21:10:24",1
"23/09/04","21:30",0.0,27.9,80.2,1002.4,287.5,0.2,0.5,328.7,0.00,24.2,26.6,"21:24:00",1
"23/09/04","21:40",0.0,27.7,80.5,1002.4,278.4,0.3,0.9,250.4,0.00,24.1,26.6,"21:35:12",1
"23/09/04","21:50",0.0,27.8,81.1,1002.2,316.8,1.0,2.0,351.1,0.00,24.3,26.4,"21:46:48",1
"23/09/04","22:00",0.0,27.6,81.7,1002.4,316.6,0.7,1.8,340.3,0.00,24.2,26.5,"21:52:48",1
"23/09/04","22:10",0.0,27.6,82.3,1002.2,322.1,0.7,1.1,323.0,0.00,24.3,26.5,"22:00:32",1
"23/09/04","22:20",0.0,27.5,82.8,1002.2,311.6,0.5,1.2,333.4,0.00,24.4,26.4,"22:10:08",1
"23/09/04","22:30",0.0,27.5,83.4,1002.2,339.9,1.0,2.0,319.4,0.00,24.5,26.4,"22:28:24",1
"23/09/04","22:40",0.0,27.3,84.2,1001.7,320.2,0.6,1.6,349.1,0.00,24.4,26.5,"22:34:00",1
"23/09/04","22:50",0.0,27.2,85.1,1001.9,334.4,0.6,1.6,324.7,0.00,24.5,26.3,"22:47:52",1
"23/09/04","23:00",0.0,26.9,86.1,1001.9,312.0,0.6,1.6,317.5,0.00,24.4,26.3,"22:53:28",1
"23/09/04","23:10",0.0,26.9,86.9,1001.9,284.6,0.6,1.2,329.9,0.00,24.6,26.4,"23:01:36",1
"23/09/04","23:20",0.0,26.7,87.4,1001.7,339.1,0.5,2.0,345.4,0.00,24.5,26.5,"23:10:48",1
"23/09/04","23:30",0.0,26.7,88.0,1001.7,342.2,0.6,1.6,343.8,0.00,24.6,26.3,"23:29:44",1
"23/09/04","23:40",0.0,26.7,88.3,1001.9,305.8,1.0,1.7,259.4,0.00,24.6,26.3,"23:32:32",1
"23/09/04","23:50",0.0,26.5,88.6,1001.7,268.1,0.5,1.4,249.7,0.00,24.5,26.2,"23:40:16",1
"23/09/04","24:00",0.0,26.5,88.9,1002.2,286.3,0.6,1.2,264.4,0.00,24.6,26.4,"23:59:28",1
